Location: Hains Lake
(37.8540°N, 99.8578°W)
Time: 05:05:54
(UTC+00:00)

Tiros 1 despin weight - Pass Details

Date: 22 April 2021
Orbit: 593 x 642 km, 48.2° (Epoch: 07 May)

Event Time Altitude Azimuth Distance (km) Brightness Sun altitude
Rises 09:00:58 0° 192° (SSW) 2,920 - -29.7°
Reaches altitude 10° 09:03:58 10° 172° (S) 2,010 - -29.3°
Maximum altitude 09:06:58 17° 132° (SE) 1,589 - -28.9°
Exits shadow 09:07:56 16° 116° (ESE) 1,637 ? -28.7°
Drops below altitude 10° 09:09:57 10° 91° (E) 2,002 ? -28.5°
Sets 09:12:55 0° 71° (ENE) 2,903 ? -28.1°
